Showing default

NVS-02, 62850

Orbit data source: Space-Track

NVS-02, 62850 is a payload satellite owned by ISRO (IN) in HEO that was launched on Wed, 29 Jan 2025 UTC via a GSLV MK II launch vehicle from the Sirharikota (SRI). Payload-class satellites include a variety of spacecraft equipped with specific instruments for various scientific and technological missions. These include communications satellites like Starlink; space stations such as the ISS; scientific satellites like the Hubble; Earth observation satellites from companies like Planet Labs, Umbra, and HawkEye 360; GPS; miniature CubeSats for education and research; and military/defense satellites.

Loading next visibility...
Identifier
62850, 2025-020A
Orbit
HEO
Country
Flag of ININ / IND
Related business
Manufacturer
ISRO
Mission
Partially operational Civil Navigation
Bus & Motor
I2K, ISRO LAM
Mass
2,232 kg wet, ~1,000 kg dry
Launch date (UTC)
2025-01-29 (9 months ago)
Launch vehicle
GSLV MK II
Launch site
Sirharikota (SRI)
Object type
Payload
Rocket body
Debris
Shape & HBR
Box + 2 Pan, 3.0 m
Radar Cross Section
8.526 m², Large (>1 m²)

Expand to show TLE details & history
Last TLE update: 21 hours ago

TLE from 21 hours ago
0 NVS-02
1 62850U 25020A   25304.26705360  .00000395  00000-0  37535-3 0  9996
2 62850  21.0724 342.9769 7351510 358.6992   0.3258  2.17549534  5994
Epoch: 2025-10-31T06:24Z
TLE epoch observation values (Epoch: 2025-10-31T06:24:33.431Z)
Latitude
0.00015°
Longitude
-152.97653°
Altitude
289.57 km
Speed
10.184 km/s
True Right ascension
22h 51m 54s
True Declination
0° 00' 01"
Sunlit
Object was in full shadow at epoch
Visualization orbit readout
Latitude
Unknown
Longitude
Unknown
Altitude
Unknown
Speed
Unknown
Apparent Right ascension
Unknown
Apparent Declination
Unknown
Sunlit
N/A
Visualization observer readout
Local Sidereal Time
22:40:30
Azimuth
Unknown
Elevation
Unknown
Doppler factor
Unknown
Orbital elements
Apogee altitude
37,284.718 km
Perigee altitude
286.449 km
Semi-major axis
25,163.721 km
Eccentricity
0.73515
Inclination
21.0724°
RAAN
342.9769°
Arg. of periapsis
358.6992°
True anomaly
3.14729°
Mean anomaly
0.3258°
Eccentric anomaly
1.22987°
Mean motion
0.54373 °/min
Orbital period
662.1 mins
BSTAR
0.00037535
Loading maneuver chart data...
Computing Atmospheric mass density...
Loading historical data...
Loading historical data...
Loading historical data...
Loading historical data...
Loading historical data...
Loading historical data...
Loading historical data...
Other satellites on launch #20 in the year 2025 (2025-01-29 UTC)

Documentation

Showing up to 5 results
|